| time (UTC) | temp C | wind direction | speed KPH | gust KPH | rain 1hr cm | rain 24hr cm | rain mn cm | humidity % | barometer mb |
| 20260504044542 | 3 | 0 | 0.0 | 0.0 | 0.00 | 0.00 | 0.00 | 89 | 1021.0 |
| 20260504043052 | 3 | 0 | 0.0 | 0.0 | 0.00 | 0.00 | 0.00 | 89 | 1021.1 |
| 20260504041541 | 3 | 0 | 0.0 | 0.0 | 0.00 | 0.00 | 0.00 | 87 | 1021.0 |
| 20260504040041 | 4 | 0 | 0.0 | 0.0 | 0.00 | 0.00 | 0.00 | 86 | 1020.8 |
| 20260504034539 | 4 | 0 | 0.0 | 0.0 | 0.00 | 0.00 | 0.00 | 85 | 1020.8 |
| 20260504033040 | 5 | 0 | 0.0 | 0.0 | 0.00 | 0.00 | 0.00 | 85 | 1020.6 |
| 20260504031545 | 5 | 0 | 0.0 | 0.0 | 0.00 | 0.00 | 0.00 | 83 | 1020.5 |
| 20260504030047 | 5 | 0 | 0.0 | 0.0 | 0.00 | 0.00 | 0.00 | 82 | 1020.5 |
| 20260504024537 | 5 | 0 | 0.0 | 0.0 | 0.00 | 0.00 | 0.00 | 80 | 1020.4 |
| 20260504023038 | 6 | 0 | 0.0 | 0.0 | 0.00 | 0.00 | 0.00 | 77 | 1020.5 |
| 20260504021545 | 6 | 0 | 0.0 | 0.0 | 0.00 | 0.00 | 0.00 | 77 | 1020.3 |
| 20260504020053 | 7 | 0 | 0.0 | 0.0 | 0.00 | 0.00 | 0.00 | 72 | 1020.3 |
| 20260504014549 | 7 | 0 | 0.0 | 0.0 | 0.00 | 0.00 | 0.00 | 69 | 1020.3 |
| 20260504013042 | 8 | 0 | 0.0 | 0.0 | 0.00 | 0.00 | 0.00 | 66 | 1020.3 |
| 20260504011536 | 8 | 0 | 0.0 | 0.0 | 0.00 | 0.00 | 0.00 | 61 | 1020.1 |
| 20260504010044 | 9 | 0 | 0.0 | 0.0 | 0.00 | 0.00 | 0.00 | 55 | 1019.9 |
| 20260504004543 | 10 | 0 | 0.0 | 0.0 | 0.00 | 0.00 | 0.00 | 52 | 1019.8 |
| 20260504003046 | 11 | 0 | 0.0 | 0.0 | 0.00 | 0.00 | 0.00 | 47 | 1019.8 |
| 20260504001542 | 12 | 0 | 0.0 | 0.0 | 0.00 | 0.00 | 0.00 | 42 | 1019.6 |
| 20260504000045 | 13 | 0 | 0.0 | 0.0 | 0.00 | 0.00 | 0.00 | 40 | 1019.4 |
| 20260503234536 | 13 | 0 | 0.0 | 0.0 | 0.00 | 0.00 | 0.00 | 40 | 1019.3 |
| 20260503233042 | 14 | 0 | 0.0 | 0.0 | 0.00 | 0.00 | 0.00 | 39 | 1019.3 |
| 20260503231543 | 14 | 0 | 0.0 | 4.8 | 0.00 | 0.00 | 0.00 | 38 | 1019.0 |
| 20260503230049 | 15 | 0 | 0.0 | 8.0 | 0.00 | 0.00 | 0.00 | 37 | 1018.9 |
| 20260503224539 | 15 | 0 | 0.0 | 3.2 | 0.00 | 0.00 | 0.00 | 35 | 1019.3 |
| 20260503223038 | 15 | 0 | 0.0 | 6.4 | 0.00 | 0.00 | 0.00 | 33 | 1019.2 |
| 20260503221543 | 16 | 0 | 0.0 | 4.8 | 0.00 | 0.00 | 0.00 | 32 | 1019.1 |
| 20260503220043 | 16 | 0 | 0.0 | 12.9 | 0.00 | 0.00 | 0.00 | 32 | 1019.3 |
| 20260503214544 | 16 | 0 | 0.0 | 6.4 | 0.00 | 0.00 | 0.00 | 34 | 1019.2 |
| 20260503213040 | 16 | 0 | 0.0 | 0.0 | 0.00 | 0.00 | 0.00 | 34 | 1019.2 |
| 20260503211549 | 16 | 0 | 0.0 | 8.0 | 0.00 | 0.00 | 0.00 | 36 | 1019.1 |
| 20260503210044 | 16 | 59 | 0.0 | 11.3 | 0.00 | 0.00 | 0.00 | 35 | 1019.1 |
| 20260503204549 | 16 | 0 | 0.0 | 4.8 | 0.00 | 0.00 | 0.00 | 35 | 1019.2 |
| 20260503203052 | 16 | 0 | 0.0 | 8.0 | 0.00 | 0.00 | 0.00 | 36 | 1019.4 |
| 20260503201539 | 16 | 0 | 0.0 | 1.6 | 0.00 | 0.00 | 0.00 | 34 | 1019.3 |
| 20260503200052 | 15 | 0 | 0.0 | 11.3 | 0.00 | 0.00 | 0.00 | 33 | 1019.6 |
| 20260503194545 | 15 | 0 | 0.0 | 11.3 | 0.00 | 0.00 | 0.00 | 38 | 1019.8 |
| 20260503193055 | 15 | 0 | 0.0 | 0.0 | 0.00 | 0.00 | 0.00 | 36 | 1020.0 |
| 20260503191548 | 15 | 0 | 0.0 | 12.9 | 0.00 | 0.00 | 0.00 | 36 | 1020.2 |
| 20260503190047 | 13 | 214 | 1.6 | 19.3 | 0.00 | 0.00 | 0.00 | 35 | 1020.3 |
| 20260503184549 | 14 | 0 | 0.0 | 3.2 | 0.00 | 0.00 | 0.00 | 41 | 1020.5 |
| 20260503183045 | 14 | 0 | 1.6 | 11.3 | 0.00 | 0.00 | 0.00 | 36 | 1020.6 |
| 20260503181607 | 14 | 0 | 0.0 | 14.5 | 0.00 | 0.00 | 0.00 | 39 | 1020.6 |
| 20260503180056 | 14 | 0 | 0.0 | 1.6 | 0.00 | 0.00 | 0.00 | 40 | 1020.9 |
| 20260503174555 | 13 | 0 | 0.0 | 20.9 | 0.00 | 0.00 | 0.00 | 42 | 1021.0 |
| 20260503173055 | 13 | 0 | 0.0 | 6.4 | 0.00 | 0.00 | 0.00 | 41 | 1020.9 |
| 20260503171543 | 12 | 0 | 0.0 | 8.0 | 0.00 | 0.00 | 0.00 | 43 | 1021.0 |
| 20260503081544 | 3 | 0 | 0.0 | 0.0 | 0.00 | 0.00 | 0.00 | 83 | 1019.4 |
| 20260503071541 | 3 | 0 | 0.0 | 0.0 | 0.00 | 0.00 | 0.00 | 82 | 1018.9 |